This demonstration page uses our WeatherBlox Daily Observations layout. Learn more.

Left ArrowRight Arrow

Hourly Observations for July 2, 2018

Temp ( °F °C ) Dew Point ( °F °C ) Humidity (%) Winds ( mph kmh ) Pressure ( in mb ) Visibility ( mi km ) Precip ( " mm )
12:53 am 00:53 Clear 69 20.6 61 16.1 76 76 SSE 5 7 29.99 1016 10 16 0.00 0.00
1:53 am 01:53 Clear 67 19.4 60 15.6 79 79 SSE 5 7 29.99 1016 10 16 0.00 0.00
2:53 am 02:53 Clear 67 19.4 60 15.6 79 79 SSE 10 17 30.00 1016 10 16 0.00 0.00
3:53 am 03:53 Clear 65 18.3 60 15.6 84 84 S 9 15 30.00 1016 10 16 0.00 0.00
4:53 am 04:53 Clear 65 18.3 60 15.6 84 84 SSE 9 15 29.99 1016 10 16 0.00 0.00
5:53 am 05:53 Clear 64 17.8 60 15.6 87 87 S 9 15 30.00 1016 10 16 0.00 0.00
6:53 am 06:53 Sunny 65 18.3 61 16.1 87 87 S 8 13 29.98 1015 10 16 0.00 0.00
7:53 am 07:53 Sunny 67 19.4 62 16.7 84 84 S 6 9 30.00 1016 10 16 0.00 0.00
8:53 am 08:53 Sunny 72 22.2 64 17.8 76 76 S 9 15 30.00 1016 10 16 0.00 0.00
9:53 am 09:53 Sunny 75 23.9 65 18.3 71 71 S 8 13 29.99 1016 10 16 0.00 0.00
10:53 am 10:53 Sunny 78 25.6 66 18.9 67 67 S 12 19 29.98 1015 10 16 0.00 0.00
11:53 am 11:53 Sunny 81 27.2 66 18.9 61 61 SSW 12 19 29.97 1015 10 16 0.00 0.00
12:53 pm 12:53 Sunny 83 28.3 67 19.4 59 59 S 12 19 29.96 1015 10 16 0.00 0.00
1:53 pm 13:53 Sunny 85 29.4 66 18.9 53 53 S 14 22 29.94 1014 10 16 0.00 0.00
2:53 pm 14:53 Sunny 86 30 67 19.4 53 53 S 17 28 29.92 1013 10 16 0.00 0.00
3:53 pm 15:53 Sunny 87 30.6 67 19.4 51 51 S 13 20 29.91 1013 10 16 0.00 0.00
4:53 pm 16:53 Sunny 87 30.6 69 20.6 55 55 SSE 13 20 29.89 1012 10 16 0.00 0.00
5:53 pm 17:53 Sunny 87 30.6 70 21.1 57 57 SE 15 24 29.88 1012 10 16 0.00 0.00
6:53 pm 18:53 Sunny 86 30 70 21.1 59 59 SE 10 17 29.85 1011 10 16 0.00 0.00
7:53 pm 19:53 Sunny 84 28.9 69 20.6 61 61 SE 12 19 29.86 1011 10 16 0.00 0.00
8:53 pm 20:53 Sunny 82 27.8 71 21.7 69 69 SE 9 15 29.88 1012 10 16 0.00 0.00
9:53 pm 21:53 Clear 79 26.1 71 21.7 77 77 SE 9 15 29.90 1012 10 16 0.00 0.00
10:53 pm 22:53 Clear 78 25.6 70 21.1 76 76 SSE 10 17 29.91 1013 10 16 0.00 0.00
11:53 pm 23:53 Clear 77 25 69 20.6 77 77 SSE 10 17 29.90 1012 10 16 0.00 0.00

Powered by AerisWeather